Change the Weather History Date:

Saturday, April 26, 2014

  Actual Average Record
Temperature  
Mean Temperature 42 °F -  
Max Temperature 55 °F 65 °F 86 °F (1962)
Min Temperature 28 °F 37 °F 23 °F (2002)
Degree Days  
Heating Degree Days 24    
Moisture  
Dew Point 29 °F    
Average Humidity 59    
Maximum Humidity 95    
Minimum Humidity 33    
Precipitation  
Precipitation 0.01 in - - ()
Sea Level Pressure  
Sea Level Pressure 29.99 in    
Wind  
Wind Speed 7 mph (ENE)    
Max Wind Speed 21 mph    
Max Gust Speed 29 mph    
Visibility 10 miles    
Events Rain    
Averages and records for this station are not official NWS values.
T = Trace of Precipitation, MM = Missing Value Source: NWS Daily Summary

Daily Weather History Graph

Daily Weather History Graph

Search for Another Location

Airport or City:

Trip Planner

Search our weather history database for the weather conditions in past years. The results will help you decide how hot, cold, wet, or windy it might be!

Date:

Astronomy

Apr. 26, 2014 Rise Set
Actual Time 6:02 AM CDT 8:00 PM CDT
Civil Twilight 5:30 AM CDT 8:31 PM CDT
Nautical Twilight 4:52 AM CDT 9:09 PM CDT
Astronomical Twilight 4:11 AM CDT 9:51 PM CDT
Moon 4:32 AM CDT (4/26) 5:23 PM CDT (4/26)
Length of Visible Light 15h 00m
Length of Day
13h 58m
Waning Crescent, 8% of the Moon is Illuminated
Apr 26
Waning Crescent
Apr 29
New
May 6
First Quarter
May 14
Full
May 21
Last Quarter

Hourly Weather History & Observations

Time (CDT) Temp. Windchill Dew Point Humidity Pressure Visibility Wind Dir Wind Speed Gust Speed Precip Events Conditions
12:15 AM 43.3 °F 39.9 °F 31.1 °F 62% 29.91 in 10.0 mi NNE 5.8 mph - N/A   Scattered Clouds
12:35 AM 42.1 °F 40.2 °F 30.4 °F 63% 29.92 in 10.0 mi NNE 3.5 mph - N/A   Clear
12:55 AM 41.5 °F 39.6 °F 30.6 °F 65% 29.93 in 10.0 mi North 3.5 mph - N/A   Clear
1:15 AM 40.3 °F - 30.2 °F 67% 29.93 in 10.0 mi Calm Calm - N/A   Clear
1:35 AM 34.9 °F - 29.8 °F 82% 29.93 in 10.0 mi Calm Calm - N/A   Clear
1:55 AM 36.7 °F - 29.8 °F 76% 29.93 in 10.0 mi Calm Calm - N/A   Clear
2:15 AM 33.8 °F - 29.7 °F 85% 29.93 in 10.0 mi Calm Calm - N/A   Clear
2:35 AM 33.3 °F 27.9 °F 28.8 °F 84% 29.93 in 10.0 mi NNE 5.8 mph - N/A   Clear
2:55 AM 33.4 °F 29.1 °F 29.1 °F 84% 29.93 in 10.0 mi NNE 4.6 mph - N/A   Clear
3:15 AM 33.1 °F - 29.3 °F 86% 29.94 in 10.0 mi Calm Calm - N/A   Clear
3:35 AM 31.3 °F 26.6 °F 28.8 °F 90% 29.94 in 10.0 mi NNE 4.6 mph - N/A   Clear
3:55 AM 31.8 °F - 29.3 °F 90% 29.95 in 10.0 mi Calm Calm - N/A   Clear
4:15 AM 30.2 °F 25.4 °F 28.9 °F 95% 29.95 in 10.0 mi North 4.6 mph - N/A   Clear
4:35 AM 33.8 °F 28.6 °F 30.0 °F 86% 29.96 in 10.0 mi North 5.8 mph - N/A   Clear
4:55 AM 33.1 °F 26.1 °F 29.3 °F 86% 29.97 in 10.0 mi NNE 8.1 mph - N/A   Clear
5:15 AM 33.6 °F 29.4 °F 29.3 °F 84% 29.98 in 10.0 mi NNE 4.6 mph - N/A   Clear
5:35 AM 33.3 °F - 28.4 °F 82% 29.99 in 10.0 mi Calm Calm - N/A   Clear
5:55 AM 31.6 °F - 27.7 °F 85% 30.00 in 10.0 mi Calm Calm - N/A   Clear
6:15 AM 28.9 °F - 27.5 °F 94% 30.00 in 10.0 mi Calm Calm - N/A   Clear
6:35 AM 30.0 °F - 28.4 °F 94% 30.01 in 10.0 mi Calm Calm - N/A   Clear
6:55 AM 32.7 °F - 29.7 °F 88% 30.02 in 10.0 mi Calm Calm - N/A   Clear
7:15 AM 36.5 °F - 29.3 °F 75% 30.03 in 10.0 mi Calm Calm - N/A   Clear
7:35 AM 37.6 °F 33.1 °F 29.8 °F 74% 30.04 in 10.0 mi ENE 5.8 mph - N/A   Clear
7:50 AM 38.3 °F 33.9 °F 29.5 °F 71% 30.04 in 10.0 mi ENE 5.8 mph - N/A   Clear
8:15 AM 39.2 °F 32.5 °F 28.9 °F 67% 30.04 in 10.0 mi ENE 10.4 mph - N/A   Clear
8:35 AM 40.6 °F 34.3 °F 29.1 °F 64% 30.04 in 10.0 mi NE 10.4 mph - N/A   Clear
8:50 AM 41.7 °F 37.3 °F 28.8 °F 60% 30.04 in 10.0 mi ENE 6.9 mph - N/A   Clear
9:15 AM 43.2 °F 39.0 °F 28.2 °F 56% 30.04 in 10.0 mi ENE 6.9 mph - N/A   Clear
9:35 AM 43.7 °F 39.1 °F 28.4 °F 55% 30.03 in 10.0 mi NE 8.1 mph - N/A   Clear
9:55 AM 45.7 °F 41.0 °F 28.4 °F 51% 30.03 in 10.0 mi East 9.2 mph - N/A   Clear
10:15 AM 45.7 °F 41.5 °F 27.7 °F 49% 30.03 in 10.0 mi East 8.1 mph - N/A   Clear
10:55 AM 48.4 °F - 27.3 °F 44% 30.03 in 10.0 mi ENE 8.1 mph - N/A   Clear
11:15 AM 49.8 °F - 28.0 °F 43% 30.03 in 10.0 mi NE 8.1 mph - N/A   Clear
11:35 AM 50.4 °F - 26.6 °F 40% 30.03 in 10.0 mi ENE 5.8 mph - N/A   Clear
11:55 AM 52.2 °F - 26.6 °F 37% 30.02 in 10.0 mi ENE 13.8 mph 17.3 mph N/A   Clear
12:15 PM 50.9 °F - 26.4 °F 39% 30.02 in 10.0 mi ENE 12.7 mph 17.3 mph N/A   Clear
12:35 PM 52.7 °F - 26.4 °F 36% 30.02 in 10.0 mi East 5.8 mph - N/A   Clear
12:55 PM 53.8 °F - 25.5 °F 34% 30.02 in 10.0 mi NE 9.2 mph - N/A   Clear
1:15 PM 54.1 °F - 26.1 °F 34% 30.02 in 10.0 mi SE 5.8 mph 17.3 mph N/A   Clear
1:35 PM 55.2 °F - 27.7 °F 35% 30.02 in 10.0 mi East 12.7 mph 17.3 mph N/A   Clear
1:50 PM 54.5 °F - 27.0 °F 35% 30.01 in 10.0 mi East 9.2 mph - N/A   Clear
2:15 PM 55.0 °F - 27.1 °F 34% 30.00 in 10.0 mi ENE 12.7 mph 18.4 mph N/A   Clear
2:35 PM 54.7 °F - 26.4 °F 34% 30.00 in 10.0 mi ENE 6.9 mph - N/A   Clear
2:55 PM 55.6 °F - 27.0 °F 33% 30.00 in 10.0 mi ENE 11.5 mph - N/A   Clear
3:15 PM 55.0 °F - 27.0 °F 34% 29.99 in 10.0 mi ENE 13.8 mph 19.6 mph N/A   Clear
3:35 PM 55.9 °F - 28.6 °F 35% 30.00 in 10.0 mi East 9.2 mph - N/A   Clear
3:55 PM 55.8 °F - 28.2 °F 35% 29.99 in 10.0 mi ENE 8.1 mph 16.1 mph N/A   Scattered Clouds
4:15 PM 54.5 °F - 28.9 °F 38% 29.98 in 10.0 mi East 11.5 mph 16.1 mph N/A   Scattered Clouds
4:35 PM 54.1 °F - 28.4 °F 37% 29.97 in 10.0 mi East 12.7 mph 18.4 mph N/A   Scattered Clouds
4:55 PM 54.3 °F - 27.9 °F 36% 29.97 in 10.0 mi East 15.0 mph 20.7 mph N/A   Scattered Clouds
5:15 PM 54.0 °F - 29.1 °F 39% 29.97 in 10.0 mi ESE 16.1 mph - N/A   Clear
5:35 PM 53.6 °F - 28.8 °F 39% 29.98 in 10.0 mi East 12.7 mph - N/A   Clear
5:50 PM 53.1 °F - 29.3 °F 40% 29.98 in 10.0 mi ESE 15.0 mph 20.7 mph N/A   Clear
6:15 PM 52.3 °F - 29.1 °F 41% 29.98 in 10.0 mi ESE 11.5 mph 20.7 mph N/A   Clear
6:35 PM 51.8 °F - 29.7 °F 43% 29.98 in 10.0 mi ESE 16.1 mph 20.7 mph N/A   Clear
6:55 PM 50.9 °F - 30.2 °F 45% 29.98 in 10.0 mi East 16.1 mph 23.0 mph N/A   Clear
7:15 PM 50.0 °F - 30.2 °F 47% 29.99 in 10.0 mi East 15.0 mph 18.4 mph N/A   Scattered Clouds
7:35 PM 49.3 °F - 30.2 °F 48% 29.97 in 10.0 mi East 11.5 mph - N/A   Scattered Clouds
7:55 PM 48.6 °F - 30.2 °F 49% 29.98 in 10.0 mi East 12.7 mph 24.2 mph N/A   Scattered Clouds
8:15 PM 48.2 °F - 30.6 °F 51% 29.98 in 10.0 mi East 17.3 mph 24.2 mph N/A   Mostly Cloudy
8:35 PM 47.3 °F - 30.9 °F 53% 30.00 in 10.0 mi East 19.6 mph 24.2 mph N/A   Overcast
9:15 PM 45.9 °F 38.8 °F 32.0 °F 58% 30.03 in 10.0 mi East 17.3 mph 23.0 mph N/A Rain Light Rain
9:35 PM 43.9 °F 36.8 °F 34.2 °F 69% 30.03 in 10.0 mi East 15.0 mph 19.6 mph N/A Rain Light Rain
9:55 PM 43.2 °F 36.2 °F 33.8 °F 70% 30.05 in 10.0 mi East 13.8 mph - N/A   Overcast
10:15 PM 43.3 °F 38.1 °F 34.0 °F 70% 30.05 in 10.0 mi ENE 9.2 mph - N/A Rain Light Rain
10:35 PM 43.2 °F 38.4 °F 32.9 °F 67% 30.06 in 10.0 mi East 8.1 mph 18.4 mph N/A   Overcast
10:55 PM 42.6 °F 35.9 °F 33.8 °F 71% 30.05 in 10.0 mi East 12.7 mph 18.4 mph N/A Rain Light Rain
11:15 PM 42.3 °F 33.3 °F 34.0 °F 72% 30.02 in 10.0 mi East 20.7 mph 25.3 mph 0.01 in Rain Light Rain
11:35 PM 41.9 °F 34.0 °F 33.6 °F 72% 30.00 in 10.0 mi East 16.1 mph 28.8 mph 0.01 in   Mostly Cloudy
11:55 PM 41.9 °F 33.7 °F 33.3 °F 71% 30.00 in 10.0 mi East 17.3 mph 27.6 mph 0.01 in   Mostly Cloudy